Wise, VA

1:24 AM EDT on September 20, 2019 (GMT -0400)
Lonesome Pine

Weather History for KLNP - August, 2019

Change the Weather History Date:

Monday, August 19, 2019

  Actual Average Record
Temperature  
Mean Temperature 79 °F -  
Max Temperature 87 °F 78 °F 89 °F (2007)
Min Temperature 71 °F 59 °F 59 °F (2003)
Cooling Degree Days 14    
Growing Degree Days 29 (Base 50)    
Moisture  
Dew Point 64 °F    
Average Humidity 62    
Maximum Humidity 83    
Minimum Humidity 40    
Precipitation  
Precipitation 0.03 in - - ()
Sea Level Pressure  
Sea Level Pressure 30.18 in    
Wind  
Wind Speed 3 mph (SW)    
Max Wind Speed 7 mph    
Max Gust Speed -    
Visibility 10 miles    
Events Rain    
Averages and records for this station are not official NWS values.
T = Trace of Precipitation, MM = Missing Value Source: NWS Daily Summary

Daily Weather History Graph

Daily Weather History Graph

Search for Another Location

Airport or City:

Astronomy

Aug. 19, 2019 Rise Set
Actual Time 6:50 AM EDT 8:16 PM EDT
Civil Twilight 6:22 AM EDT 8:44 PM EDT
Nautical Twilight 5:49 AM EDT 9:16 PM EDT
Astronomical Twilight 5:15 AM EDT 9:51 PM EDT
Moon 10:43 PM EDT (8/19) 10:25 AM EDT (8/19)
Length of Visible Light 14h 21m
Length of Day
13h 26m
Waning Gibbous, 85% of the Moon is Illuminated
Aug 19
Waning Gibbous
Aug 23
Last Quarter
Aug 30
New
Sep 5
First Quarter
Sep 14
Full

Hourly Weather History & Observations

Time (EDT) Temp. Heat Index Dew Point Humidity Pressure Visibility Wind Dir Wind Speed Gust Speed Precip Events Conditions
12:15 AM - - - N/A% 30.14 in 10.0 mi West 4.6 mph - N/A   Clear
12:35 AM - - - N/A% 30.14 in - SW 4.6 mph - N/A   Unknown
12:55 AM - - - N/A% 30.15 in 10.0 mi SW 4.6 mph - N/A   Clear
1:15 AM - - - N/A% 30.15 in 10.0 mi SW 5.8 mph - N/A   Clear
1:35 AM - - - N/A% 30.15 in 10.0 mi SW 3.5 mph - N/A   Unknown
1:55 AM - - - N/A% 30.15 in 10.0 mi SW 3.5 mph - N/A   Clear
2:15 AM - - - N/A% 30.15 in 10.0 mi SSW 3.5 mph - N/A   Clear
2:35 AM - - - N/A% 30.15 in 10.0 mi South 3.5 mph - N/A   Unknown
2:55 AM - - - N/A% 30.15 in 10.0 mi South 3.5 mph - N/A   Unknown
3:15 AM - - - N/A% 30.14 in 10.0 mi Calm Calm - N/A   Clear
3:35 AM - - - N/A% 30.14 in 10.0 mi SSW 3.5 mph - N/A   Clear
3:55 AM - - - N/A% 30.15 in 10.0 mi SSW 4.6 mph - N/A   Clear
4:15 AM - - - N/A% 30.15 in 10.0 mi SW 3.5 mph - N/A   Clear
4:35 AM - - - N/A% 30.15 in 10.0 mi SW 3.5 mph - N/A   Unknown
4:55 AM - - - N/A% 30.15 in 10.0 mi SSW 3.5 mph - N/A   Clear
5:15 AM - - - N/A% 30.15 in 10.0 mi Calm Calm - N/A   Unknown
5:35 AM - - - N/A% 30.16 in 10.0 mi Calm Calm - N/A   Unknown
5:55 AM - - - N/A% 30.16 in 10.0 mi Calm Calm - N/A   Clear
6:15 AM - - - N/A% 30.16 in - South 3.5 mph - N/A   Unknown
6:35 AM - - - N/A% 30.16 in 10.0 mi Calm Calm - N/A   Unknown
6:55 AM - - - N/A% 30.17 in 10.0 mi Calm Calm - N/A   Clear
7:20 AM - - - N/A% 30.18 in 10.0 mi Calm Calm - N/A   Clear
7:35 AM - - - N/A% 30.18 in 10.0 mi Calm Calm - N/A   Clear
7:55 AM - - - N/A% 30.19 in 10.0 mi Calm Calm - N/A   Clear
8:15 AM - - - N/A% 30.20 in 10.0 mi WSW 3.5 mph - N/A   Clear
8:35 AM - - - N/A% 30.20 in 10.0 mi WSW 4.6 mph - N/A   Clear
8:55 AM - - - N/A% 30.20 in 10.0 mi WSW 4.6 mph - N/A   Clear
9:20 AM - - - N/A% 30.21 in 10.0 mi WNW 3.5 mph - N/A   Mostly Cloudy
9:35 AM - - - N/A% 30.21 in 10.0 mi Calm Calm - N/A   Mostly Cloudy
9:55 AM - - - N/A% 30.22 in 10.0 mi Calm Calm - N/A   Scattered Clouds
11:15 AM - - - N/A% 30.22 in - North - - N/A   Unknown
11:35 AM - - - N/A% 30.22 in 10.0 mi SW 4.6 mph - N/A   Clear
11:50 AM - - - N/A% 30.23 in 10.0 mi West 4.6 mph - N/A   Clear
12:15 PM - - - N/A% - - North - - N/A   Unknown
12:35 PM 80.6 °F 81.8 °F 62.6 °F 54% 30.23 in 10.0 mi Calm Calm - N/A   Clear
12:55 PM - - - N/A% 30.23 in 10.0 mi SW 3.5 mph - N/A   Clear
1:15 PM - - - N/A% 30.22 in 10.0 mi East 5.8 mph - N/A   Unknown
1:35 PM - - - N/A% - - North - - N/A   Unknown
2:20 PM 82.4 °F 83.4 °F 62.6 °F 51% 30.21 in 10.0 mi West 3.5 mph - N/A   Mostly Cloudy
2:35 PM 82.4 °F 83.4 °F 62.6 °F 51% 30.21 in 10.0 mi Calm Calm - N/A   Scattered Clouds
2:55 PM 86.0 °F 86.6 °F 62.6 °F 45% 30.21 in 10.0 mi West 5.8 mph - N/A   Scattered Clouds
3:15 PM 84.2 °F 84.4 °F 60.8 °F 45% 30.19 in 10.0 mi Calm Calm - N/A   Scattered Clouds
3:35 PM 86.0 °F 87.3 °F 64.4 °F 48% 30.19 in 10.0 mi NE 3.5 mph - N/A   Scattered Clouds
3:55 PM 84.2 °F 85.0 °F 62.6 °F 48% 30.18 in 10.0 mi NE 6.9 mph - N/A   Mostly Cloudy
4:15 PM 82.4 °F 83.4 °F 62.6 °F 51% 30.17 in 10.0 mi Calm Calm - N/A   Overcast
4:50 PM 87.8 °F 88.5 °F 62.6 °F 43% 30.17 in 10.0 mi Calm Calm - N/A   Clear
5:15 PM 87.8 °F 87.6 °F 60.8 °F 40% 30.16 in 10.0 mi Calm Calm - N/A   Mostly Cloudy
5:35 PM 86.0 °F 85.4 °F 59.0 °F 40% 30.16 in 10.0 mi NNW 3.5 mph - N/A   Overcast
5:55 PM 78.8 °F - 64.4 °F 61% 30.17 in 10.0 mi WSW 4.6 mph - 0.03 in Rain Light Rain
6:15 PM 80.6 °F 83.2 °F 68.0 °F 65% 30.16 in 10.0 mi SW 5.8 mph - N/A   Scattered Clouds
6:35 PM 82.4 °F 83.9 °F 64.4 °F 54% 30.16 in 10.0 mi SSW 4.6 mph - N/A   Clear
6:55 PM 80.6 °F 82.7 °F 66.2 °F 61% 30.16 in 10.0 mi Calm Calm - N/A   Clear
7:20 PM 80.6 °F 83.2 °F 68.0 °F 65% 30.16 in 10.0 mi SSW 3.5 mph - N/A   Clear
7:40 PM 78.8 °F - 68.0 °F 69% 30.16 in 10.0 mi SSW 4.6 mph - N/A   Clear
7:55 PM 77.0 °F - 68.0 °F 74% 30.17 in 10.0 mi South 3.5 mph - N/A   Clear
8:15 PM 77.0 °F - 68.0 °F 74% 30.17 in 10.0 mi SSW 3.5 mph - N/A   Clear
8:35 PM 77.0 °F - 68.0 °F 74% 30.17 in 10.0 mi SSW 3.5 mph - N/A   Clear
8:55 PM 73.4 °F - 66.2 °F 78% 30.17 in 10.0 mi Calm Calm - N/A   Clear
9:15 PM 73.4 °F - 64.4 °F 73% 30.18 in 10.0 mi South 3.5 mph - N/A   Clear
9:35 PM 71.6 °F - 64.4 °F 78% 30.19 in 10.0 mi Calm Calm - N/A   Clear
9:55 PM 71.6 °F - 66.2 °F 83% 30.21 in 10.0 mi SSW 3.5 mph - N/A   Clear
10:15 PM 71.6 °F - 64.4 °F 78% 30.21 in 10.0 mi South 5.8 mph - N/A   Clear
10:35 PM 75.2 °F - 64.4 °F 69% 30.22 in 10.0 mi South 5.8 mph - N/A   Clear
10:55 PM 73.4 °F - 64.4 °F 73% 30.22 in 10.0 mi South 5.8 mph - N/A   Clear
11:15 PM 73.4 °F - 64.4 °F 73% 30.22 in 10.0 mi SSW 3.5 mph - N/A   Clear
11:35 PM 71.6 °F - 64.4 °F 78% 30.22 in 10.0 mi Calm Calm - N/A   Clear
11:55 PM 71.6 °F - 64.4 °F 78% 30.22 in 10.0 mi SSW 4.6 mph - N/A   Clear